RYR2382 EPKT-LIPH

Flight info

Callsign RYR2382
Flight time N/A
Altitude 36000
Route TUSIN DCT MIKOV DCT DETSA/N0428F350 DCT BAKOR/N0333F190 N503 VIC
Aircraft B738/M-SDE2E3FGHIRWXY/LB1

Departure

Time 2026-04-27 17:25
Airport Katowice Wojciech Korfanty International Airport (EPKT)

Arrival

Time N/A
Airport Treviso Airport (LIPH)
Time Latitude Longitude Altitude Speed Heading
2026-04-27 16:40 50.47183 19.07212 999 ft 0 kts 180°
2026-04-27 17:13 50.47185 19.07212 997 ft 2 kts 180°
2026-04-27 17:13 50.47207 19.07212 1000 ft 3 kts 180°
2026-04-27 17:14 50.47230 19.07212 998 ft 3 kts 180°
2026-04-27 17:14 50.47246 19.07212 998 ft 0 kts 180°
2026-04-27 17:14 50.47237 19.07172 997 ft 0 kts 89°
2026-04-27 17:18 50.47237 19.07176 997 ft 2 kts 90°
2026-04-27 17:18 50.47234 19.07255 997 ft 13 kts 92°
2026-04-27 17:18 50.47234 19.07436 1002 ft 21 kts 92°
2026-04-27 17:19 50.47235 19.07658 1002 ft 24 kts 90°
2026-04-27 17:19 50.47234 19.07908 1002 ft 21 kts 91°
2026-04-27 17:19 50.47233 19.08011 1003 ft 19 kts 91°
2026-04-27 17:19 50.47233 19.08128 1001 ft 24 kts 89°
2026-04-27 17:20 50.47234 19.08270 1000 ft 28 kts 89°
2026-04-27 17:20 50.47232 19.08434 1000 ft 32 kts 90°
2026-04-27 17:20 50.47233 19.08618 999 ft 31 kts 92°
2026-04-27 17:20 50.47232 19.08781 997 ft 32 kts 89°
2026-04-27 17:21 50.47233 19.08964 1003 ft 36 kts 90°
2026-04-27 17:21 50.47227 19.09165 997 ft 30 kts 87°
2026-04-27 17:21 50.47234 19.09360 1002 ft 17 kts 91°
2026-04-27 17:21 50.47231 19.09592 1003 ft 20 kts 94°
2026-04-27 17:22 50.47230 19.09792 1001 ft 21 kts 89°
2026-04-27 17:22 50.47244 19.10028 997 ft 16 kts 65°
2026-04-27 17:22 50.47318 19.10167 999 ft 14 kts 65°
2026-04-27 17:22 50.47390 19.10332 1003 ft 23 kts 51°
2026-04-27 17:23 50.47511 19.10444 1002 ft 21 kts
2026-04-27 17:23 50.47613 19.10377 997 ft 15 kts 313°
2026-04-27 17:23 50.47613 19.10348 997 ft 7 kts 261°
2026-04-27 17:23 50.47593 19.10201 1002 ft 20 kts 262°
2026-04-27 17:24 50.47601 19.09920 995 ft 31 kts 263°
2026-04-27 17:24 50.47597 19.09386 999 ft 80 kts 271°
2026-04-27 17:24 50.47603 19.08183 997 ft 139 kts 270°
2026-04-27 17:24 50.47588 19.06557 1432 ft 148 kts 274°
2026-04-27 17:25 50.47677 19.05000 2239 ft 139 kts 282°
2026-04-27 17:25 50.47875 19.03525 2846 ft 140 kts 289°
2026-04-27 17:25 50.48047 19.01937 3159 ft 165 kts 266°
2026-04-27 17:25 50.47881 19.00021 3442 ft 190 kts 267°
2026-04-27 17:26 50.47783 18.97835 3740 ft 207 kts 269°
2026-04-27 17:26 50.47729 18.95538 4228 ft 212 kts 270°
2026-04-27 17:26 50.47687 18.93214 4782 ft 214 kts 270°
2026-04-27 17:26 50.47638 18.90885 5350 ft 215 kts 270°
2026-04-27 17:27 50.47593 18.88528 5894 ft 216 kts 271°
2026-04-27 17:27 50.47555 18.86164 5956 ft 216 kts 271°
2026-04-27 17:27 50.47519 18.83823 5988 ft 214 kts 272°
2026-04-27 17:27 50.47485 18.81486 6004 ft 216 kts 272°
2026-04-27 17:28 50.47450 18.79103 6019 ft 220 kts 272°
2026-04-27 17:28 50.47415 18.76707 6007 ft 219 kts 272°
2026-04-27 17:28 50.47346 18.71948 6018 ft 217 kts 272°
2026-04-27 17:29 50.47313 18.69587 6017 ft 216 kts 272°
2026-04-27 17:29 50.47280 18.67270 6022 ft 215 kts 272°
2026-04-27 17:29 50.47246 18.64922 6015 ft 215 kts 272°
2026-04-27 17:29 50.47212 18.62584 6020 ft 214 kts 272°
2026-04-27 17:30 50.47178 18.60250 6017 ft 214 kts 272°
2026-04-27 17:30 50.46020 18.56106 5999 ft 228 kts 214°
2026-04-27 17:30 50.44629 18.54873 6071 ft 230 kts 218°
2026-04-27 17:31 50.43365 18.53298 6466 ft 234 kts 223°
2026-04-27 17:31 50.42083 18.51678 7231 ft 233 kts 222°
2026-04-27 17:31 50.40830 18.50122 7937 ft 235 kts 223°
2026-04-27 17:31 50.39542 18.48535 8663 ft 236 kts 223°
2026-04-27 17:32 50.38258 18.46962 9399 ft 239 kts 223°
2026-04-27 17:32 50.35605 18.43730 10824 ft 244 kts 223°
2026-04-27 17:32 50.34256 18.42094 11515 ft 247 kts 223°
2026-04-27 17:33 50.32886 18.40436 12206 ft 250 kts 223°
2026-04-27 17:33 50.31501 18.38763 12936 ft 253 kts 223°
2026-04-27 17:33 50.30098 18.37073 13684 ft 256 kts 223°
2026-04-27 17:33 50.28680 18.35366 14389 ft 259 kts 224°
2026-04-27 17:34 50.27246 18.33643 15090 ft 261 kts 224°
2026-04-27 17:34 50.25801 18.31910 15808 ft 263 kts 224°
2026-04-27 17:34 50.24341 18.30158 16526 ft 265 kts 224°
2026-04-27 17:34 50.22870 18.28397 17240 ft 268 kts 224°
2026-04-27 17:35 50.21382 18.26615 17946 ft 271 kts 224°
2026-04-27 17:35 50.19881 18.24820 18638 ft 274 kts 224°
2026-04-27 17:35 50.18363 18.23007 19261 ft 276 kts 224°
2026-04-27 17:35 50.16833 18.21182 19906 ft 278 kts 224°
2026-04-27 17:36 50.15294 18.19347 20491 ft 280 kts 224°
2026-04-27 17:36 50.13737 18.17492 21106 ft 283 kts 224°
2026-04-27 17:36 50.12174 18.15632 21770 ft 283 kts 224°
2026-04-27 17:36 50.10603 18.13765 22379 ft 286 kts 224°
2026-04-27 17:37 50.09013 18.11874 22981 ft 289 kts 224°
2026-04-27 17:37 50.07413 18.09975 23615 ft 290 kts 224°
2026-04-27 17:37 50.05799 18.08061 24154 ft 292 kts 224°
2026-04-27 17:37 50.04726 18.06789 24488 ft 294 kts 225°
2026-04-27 17:38 50.03096 18.04858 24985 ft 296 kts 225°
2026-04-27 17:38 50.01452 18.02912 25480 ft 298 kts 225°
2026-04-27 17:38 49.99795 18.00954 25989 ft 300 kts 225°
2026-04-27 17:38 49.98131 17.98988 26472 ft 302 kts 225°
2026-04-27 17:39 49.96451 17.97005 26955 ft 304 kts 226°
2026-04-27 17:39 49.94760 17.95010 27442 ft 306 kts 226°
2026-04-27 17:39 49.92497 17.92348 28042 ft 309 kts 226°
2026-04-27 17:39 49.91339 17.90986 28361 ft 310 kts 226°
2026-04-27 17:40 49.89612 17.88953 28827 ft 313 kts 226°
2026-04-27 17:40 49.87871 17.86906 29270 ft 315 kts 226°
2026-04-27 17:40 49.86113 17.84840 29673 ft 318 kts 226°
2026-04-27 17:40 49.84347 17.82769 30126 ft 320 kts 226°
2026-04-27 17:41 49.82566 17.80683 30484 ft 323 kts 226°
2026-04-27 17:41 49.80765 17.78573 30827 ft 326 kts 226°
2026-04-27 17:41 49.78947 17.76446 31154 ft 329 kts 226°
2026-04-27 17:41 49.77110 17.74300 31487 ft 332 kts 226°
2026-04-27 17:42 49.75255 17.72134 31818 ft 335 kts 226°
2026-04-27 17:42 49.73384 17.69954 32150 ft 339 kts 226°
2026-04-27 17:42 49.71496 17.67754 32460 ft 342 kts 226°
2026-04-27 17:42 49.69586 17.65532 32763 ft 345 kts 226°
2026-04-27 17:43 49.67679 17.63315 33077 ft 348 kts 226°
2026-04-27 17:43 49.65737 17.61060 33387 ft 350 kts 226°
2026-04-27 17:43 49.63779 17.58790 33689 ft 354 kts 226°
2026-04-27 17:43 49.61806 17.56503 33993 ft 356 kts 226°
2026-04-27 17:44 49.59816 17.54201 34266 ft 359 kts 226°
2026-04-27 17:44 49.57803 17.51873 34511 ft 362 kts 226°
2026-04-27 17:44 49.55786 17.49544 34762 ft 365 kts 226°
2026-04-27 17:44 49.53751 17.47197 34985 ft 367 kts 225°
2026-04-27 17:45 49.51696 17.44827 35178 ft 371 kts 225°
2026-04-27 17:45 49.49621 17.42437 35417 ft 374 kts 225°
2026-04-27 17:45 49.47533 17.40037 35662 ft 376 kts 225°
2026-04-27 17:45 49.45431 17.37623 35884 ft 378 kts 225°
2026-04-27 17:46 49.43315 17.35196 36108 ft 381 kts 225°
2026-04-27 17:46 49.39006 17.30254 36185 ft 391 kts 224°
2026-04-27 17:47 49.34678 17.25319 36131 ft 383 kts 224°
2026-04-27 17:47 49.30428 17.20479 36175 ft 382 kts 224°
2026-04-27 17:48 49.26175 17.15633 36192 ft 385 kts 224°
2026-04-27 17:48 49.21852 17.10720 36187 ft 389 kts 224°
2026-04-27 17:49 49.17492 17.05780 36174 ft 391 kts 224°
2026-04-27 17:49 49.13147 17.00876 36151 ft 383 kts 224°
2026-04-27 17:50 49.08891 16.96081 36173 ft 380 kts 224°
2026-04-27 17:50 49.02501 16.88883 36181 ft 382 kts 224°
2026-04-27 17:51 48.98214 16.84072 36166 ft 383 kts 224°
2026-04-27 17:51 48.93915 16.79261 36155 ft 384 kts 223°
2026-04-27 17:52 48.89608 16.74453 36166 ft 384 kts 223°
2026-04-27 17:52 48.85291 16.69642 36163 ft 385 kts 223°
2026-04-27 17:53 48.80977 16.64845 36166 ft 384 kts 223°
2026-04-27 17:53 48.77247 16.59306 36159 ft 368 kts 243°
2026-04-27 17:54 48.74509 16.52830 36162 ft 363 kts 244°
2026-04-27 17:54 48.71818 16.46364 36159 ft 362 kts 244°
2026-04-27 17:55 48.69114 16.39927 36162 ft 362 kts 244°
2026-04-27 17:55 48.66400 16.33517 36166 ft 362 kts 244°
2026-04-27 17:56 48.63677 16.27120 36171 ft 362 kts 244°
2026-04-27 17:56 48.60941 16.20713 36167 ft 363 kts 243°
2026-04-27 17:57 48.58196 16.14299 36148 ft 364 kts 243°
2026-04-27 17:57 48.55445 16.07891 36168 ft 365 kts 243°
2026-04-27 17:58 48.52680 16.01464 36169 ft 365 kts 243°
2026-04-27 17:58 48.49908 15.95037 36165 ft 366 kts 243°
2026-04-27 17:59 48.47130 15.88610 36162 ft 366 kts 243°
2026-04-27 17:59 48.44341 15.82175 36167 ft 366 kts 243°
2026-04-27 18:00 48.41572 15.75799 36154 ft 366 kts 243°
2026-04-27 18:00 48.38766 15.69355 36157 ft 366 kts 243°
2026-04-27 18:01 48.35974 15.62958 36161 ft 366 kts 243°
2026-04-27 18:01 48.33198 15.56613 36164 ft 365 kts 243°
2026-04-27 18:02 48.30403 15.50239 36158 ft 365 kts 243°
2026-04-27 18:02 48.27607 15.43877 36146 ft 365 kts 243°
2026-04-27 18:03 48.24814 15.37539 36151 ft 363 kts 242°
2026-04-27 18:03 48.22023 15.31216 36155 ft 364 kts 242°
2026-04-27 18:04 48.19225 15.24895 36157 ft 364 kts 242°
2026-04-27 18:04 48.16425 15.18582 36149 ft 364 kts 242°
2026-04-27 18:05 48.13619 15.12272 36153 ft 364 kts 242°
2026-04-27 18:05 48.10806 15.05962 36160 ft 364 kts 242°
2026-04-27 18:06 48.07990 14.99658 36136 ft 364 kts 242°
2026-04-27 18:06 48.05172 14.93366 36137 ft 364 kts 242°
2026-04-27 18:07 48.02358 14.87096 36147 ft 363 kts 242°
2026-04-27 18:07 47.99564 14.80884 36136 ft 362 kts 242°
2026-04-27 18:08 47.96752 14.74650 36138 ft 362 kts 242°
2026-04-27 18:08 47.93951 14.68450 36139 ft 360 kts 242°
2026-04-27 18:09 47.91143 14.62252 36146 ft 361 kts 242°
2026-04-27 18:09 47.88328 14.56047 36139 ft 362 kts 242°
2026-04-27 18:10 47.85508 14.49849 36132 ft 362 kts 242°
2026-04-27 18:10 47.82680 14.43648 36137 ft 362 kts 242°
2026-04-27 18:11 47.79850 14.37455 36137 ft 362 kts 242°
2026-04-27 18:11 47.77015 14.31268 36147 ft 362 kts 242°
2026-04-27 18:12 47.74173 14.25079 36128 ft 363 kts 242°
2026-04-27 18:12 47.71323 14.18884 36131 ft 363 kts 242°
2026-04-27 18:13 47.68468 14.12694 36139 ft 364 kts 242°
2026-04-27 18:13 47.65605 14.06501 36135 ft 364 kts 241°
2026-04-27 18:14 47.62734 14.00306 36135 ft 364 kts 241°
2026-04-27 18:14 47.59864 13.94126 36138 ft 364 kts 241°
2026-04-27 18:15 47.56995 13.87963 36132 ft 362 kts 241°
2026-04-27 18:15 47.54137 13.81838 36131 ft 361 kts 241°
2026-04-27 18:16 47.51289 13.75744 36135 ft 360 kts 241°
2026-04-27 18:16 47.48439 13.69661 36122 ft 360 kts 241°
2026-04-27 18:17 47.45587 13.63586 36124 ft 360 kts 241°
2026-04-27 18:17 47.42737 13.57530 36141 ft 359 kts 241°
2026-04-27 18:18 47.39878 13.51468 36122 ft 360 kts 240°
2026-04-27 18:18 47.37012 13.45403 36131 ft 361 kts 240°
2026-04-27 18:19 47.34127 13.39313 36129 ft 363 kts 240°
2026-04-27 18:19 47.31232 13.33215 36139 ft 364 kts 240°
2026-04-27 18:20 47.28327 13.27112 36134 ft 363 kts 240°
2026-04-27 18:20 47.25420 13.21018 36130 ft 363 kts 240°
2026-04-27 18:21 47.22524 13.14960 36132 ft 360 kts 240°
2026-04-27 18:21 47.19643 13.08945 36114 ft 359 kts 240°
2026-04-27 18:22 47.16783 13.02991 36113 ft 354 kts 240°
2026-04-27 18:22 47.13936 12.97066 36126 ft 356 kts 240°
2026-04-27 18:23 47.11079 12.91132 36098 ft 355 kts 240°
2026-04-27 18:23 47.08210 12.85194 36128 ft 359 kts 240°
2026-04-27 18:24 47.05312 12.79212 36112 ft 361 kts 240°
2026-04-27 18:24 47.02884 12.74207 36127 ft 364 kts 240°
2026-04-27 18:25 46.99939 12.68151 36131 ft 366 kts 240°
2026-04-27 18:25 46.96970 12.62056 36116 ft 369 kts 239°
2026-04-27 18:26 46.94004 12.55987 36113 ft 366 kts 239°
2026-04-27 18:26 46.91047 12.49944 36129 ft 365 kts 239°
2026-04-27 18:27 46.88087 12.43908 36137 ft 364 kts 240°
2026-04-27 18:27 46.85137 12.37908 36153 ft 363 kts 239°
2026-04-27 18:28 46.82186 12.31914 36135 ft 363 kts 240°
2026-04-27 18:28 46.79372 12.25894 36000 ft 351 kts 246°
2026-04-27 18:29 46.78247 12.22757 35627 ft 349 kts 249°
2026-04-27 18:29 46.77183 12.19565 35177 ft 351 kts 249°
2026-04-27 18:29 46.76122 12.16362 34729 ft 351 kts 249°
2026-04-27 18:29 46.75049 12.13174 34424 ft 349 kts 248°
2026-04-27 18:30 46.73970 12.10019 34102 ft 347 kts 248°
2026-04-27 18:30 46.72892 12.06908 33926 ft 340 kts 248°
2026-04-27 18:30 46.71825 12.03851 33618 ft 338 kts 248°
2026-04-27 18:30 46.70758 12.00802 33238 ft 338 kts 248°
2026-04-27 18:31 46.69691 11.97762 32875 ft 337 kts 248°
2026-04-27 18:31 46.68625 11.94732 32553 ft 335 kts 248°
2026-04-27 18:31 46.67563 11.91721 32224 ft 333 kts 248°
2026-04-27 18:31 46.66506 11.88726 31914 ft 332 kts 247°
2026-04-27 18:32 46.65469 11.85788 31589 ft 330 kts 248°
2026-04-27 18:32 46.64422 11.82828 31214 ft 329 kts 247°
2026-04-27 18:32 46.63377 11.79876 30874 ft 328 kts 247°
2026-04-27 18:32 46.62256 11.76776 30570 ft 327 kts 242°